TimeEDT,TemperatureF,Dew PointF,Humidity,Sea Level PressureIn,VisibilityMPH,Wind Direction,Wind SpeedMPH,Gust SpeedMPH,PrecipitationIn,Events,Conditions,WindDirDegrees,DateUTC
12:15 AM,41.2,37.4,86,30.23,10.0,Calm,Calm,-,N/A,,Clear,0,2013-03-30 04:15:00
12:35 AM,41.4,37.8,87,30.23,10.0,Calm,Calm,-,N/A,,Clear,0,2013-03-30 04:35:00
12:55 AM,41.9,37.9,86,30.23,10.0,Calm,Calm,-,N/A,,Scattered Clouds,0,2013-03-30 04:55:00
1:15 AM,42.8,36.7,79,30.23,10.0,Calm,Calm,-,N/A,,Scattered Clouds,0,2013-03-30 05:15:00
1:55 AM,42.1,36.5,81,30.22,10.0,Calm,Calm,-,N/A,,Clear,0,2013-03-30 05:55:00
2:15 AM,41.0,37.4,87,30.22,10.0,Calm,Calm,-,N/A,,Clear,0,2013-03-30 06:15:00
2:35 AM,38.8,36.5,91,30.22,10.0,Calm,Calm,-,N/A,,Clear,0,2013-03-30 06:35:00
2:55 AM,38.8,36.5,91,30.22,10.0,Calm,Calm,-,N/A,,Clear,0,2013-03-30 06:55:00
3:15 AM,39.2,36.9,91,30.21,10.0,Calm,Calm,-,N/A,,Clear,0,2013-03-30 07:15:00
3:35 AM,39.0,36.0,89,30.21,10.0,Calm,Calm,-,N/A,,Clear,0,2013-03-30 07:35:00
3:55 AM,38.3,34.9,87,30.21,10.0,Calm,Calm,-,N/A,,Clear,0,2013-03-30 07:55:00
4:15 AM,36.5,35.1,95,30.22,10.0,Calm,Calm,-,N/A,,Scattered Clouds,0,2013-03-30 08:15:00
4:35 AM,36.9,36.7,99,30.22,10.0,Calm,Calm,-,N/A,,Scattered Clouds,0,2013-03-30 08:35:00
4:55 AM,36.9,36.9,100,30.22,10.0,Calm,Calm,-,N/A,,Clear,0,2013-03-30 08:55:00
5:15 AM,35.2,35.2,100,30.22,10.0,Calm,Calm,-,N/A,,Clear,0,2013-03-30 09:15:00
5:35 AM,37.0,36.9,99,30.22,10.0,Calm,Calm,-,N/A,,Clear,0,2013-03-30 09:35:00
5:53 AM,35.6,35.6,100,30.22,10.0,Calm,Calm,-,N/A,,Scattered Clouds,0,2013-03-30 09:53:00
5:55 AM,36.9,35.8,96,30.22,10.0,Calm,Calm,-,N/A,,Clear,0,2013-03-30 09:55:00
6:15 AM,37.0,37.0,100,30.23,10.0,Calm,Calm,-,N/A,,Clear,0,2013-03-30 10:15:00
6:35 AM,37.2,36.9,99,30.23,10.0,Calm,Calm,-,N/A,,Clear,0,2013-03-30 10:35:00
6:53 AM,37.4,28.4,70,30.23,10.0,Calm,Calm,-,N/A,,Mostly Cloudy,0,2013-03-30 10:53:00
6:55 AM,36.5,36.0,98,30.23,10.0,Calm,Calm,-,N/A,,Clear,0,2013-03-30 10:55:00
7:15 AM,36.7,36.5,99,30.24,10.0,Calm,Calm,-,N/A,,Clear,0,2013-03-30 11:15:00
7:35 AM,39.9,37.6,91,30.24,10.0,Calm,Calm,-,N/A,,Clear,0,2013-03-30 11:35:00
7:41 AM,38.8,36.9,93,30.24,10.0,Calm,Calm,-,N/A,,Clear,0,2013-03-30 11:41:00
7:53 AM,39.2,37.4,93,30.25,10.0,Calm,Calm,-,N/A,,Mostly Cloudy,0,2013-03-30 11:53:00
8:53 AM,46.4,37.4,71,30.26,10.0,Calm,Calm,-,N/A,,Scattered Clouds,0,2013-03-30 12:53:00
9:53 AM,50.0,33.8,54,30.26,10.0,North,5.8,-,N/A,,Scattered Clouds,10,2013-03-30 13:53:00
10:50 AM,55.4,32.0,41,30.25,10.0,North,3.5,-,N/A,,Clear,10,2013-03-30 14:50:00
11:47 AM,57.2,32.0,38,30.24,10.0,West,5.8,-,N/A,,Scattered Clouds,270,2013-03-30 15:47:00
12:45 PM,57.2,30.2,36,30.23,10.0,NNW,8.1,-,N/A,,Scattered Clouds,340,2013-03-30 16:45:00
1:50 PM,57.2,30.2,36,30.21,10.0,NW,9.2,-,N/A,,Scattered Clouds,320,2013-03-30 17:50:00
2:45 PM,59.0,32.0,36,30.18,10.0,NW,3.5,-,N/A,,Scattered Clouds,320,2013-03-30 18:45:00
3:54 PM,59.0,32.0,36,30.17,10.0,West,9.2,-,N/A,,Partly Cloudy,260,2013-03-30 19:54:00
4:51 PM,59.0,30.2,34,30.17,10.0,WSW,3.5,-,N/A,,Partly Cloudy,240,2013-03-30 20:51:00
5:48 PM,59.0,30.2,34,30.16,10.0,SW,3.5,-,N/A,,Clear,230,2013-03-30 21:48:00
7:52 PM,50.0,30.2,47,30.17,10.0,Calm,Calm,-,N/A,,Clear,0,2013-03-30 23:52:00
8:57 PM,46.4,32.0,57,30.18,10.0,Calm,Calm,-,N/A,,Clear,0,2013-03-31 00:57:00
10:57 PM,43.7,32.0,63,30.19,10.0,SSE,5.8,-,N/A,,Clear,150,2013-03-31 02:57:00
11:17 PM,42.4,32.0,67,30.19,10.0,South,4.6,-,N/A,,Clear,170,2013-03-31 03:17:00
11:37 PM,42.8,33.1,69,30.18,10.0,SSE,3.5,-,N/A,,Clear,150,2013-03-31 03:37:00
11:57 PM,42.1,33.3,71,30.18,10.0,SSE,4.6,-,N/A,,Clear,150,2013-03-31 03:57:00